Probability
0 0 0 0 0 0 0 0 0 0 0 0 0 0 0 0 0 0 0 0 0 0 0 0 0 0 0 0 0 0 0 0 0 0 0 0 0 0 0 0 0 0 0 0
0 0 0 0 0 0 0 0 0 0 0 0 0 0 0 0 0 0 0 0 0 0 0 0 0 0 0 0 0 0 0 0 0 0 0 0 0 0 0 0 0 0 0 0
0 0 0 0 0 0 0 0 0 0 0 0 0 0 0 0 0 0 0 0 0 0 0 0 0 0 0 0 0 0 0 0 0 0 0 0 0 0 0 0 0 0 0 0
0 0 0 0 0 0 0 0 0 0 0 0 0 0 0 0 0 0 0 0 0 0 0 0 0 0 0 0 0 0 0 0 0 0 0 0 0 0 0 0 0 0 0 0
0 0 0 0 0 0 0 0 0 0 0 0 0 0 0 0 0 0 0 0 0 0 0 0 0 0 0 0 0 0 0 0 0 0 0 0 0 0 0 0 0 0 0 0
0 0 0 0 0 0 0 0 0 0 0 0 0 0 0 0 0 0 0 0 0 0 0 0 0 0 0 0 0 0 0 0 0 0 0 0 0 0 0 0 0 0 0 0
0 0 0 0 0 0 0 0 0 0 0 0 0 0 0 0 0 0 0 0 0 0 0 0 0 0 0 0 0 0 0 0 0 0 0 0 0 0 0 0 0 0 0 0
0 0 0 0 0 0 0 0 0 0 0 0 0 0 0 0 0 0 0 0 0 0 0 0 0 0 0 0 0 0 0 0 0 0 0 0 0 0 0 0 0 0 0 0
0 0 0 0 0 0 0 0 0 0 0 0 0 0 0 0 0 0 0 0 0 0 0 0 0 0 0 0 0 0 0 0 0 0 0 0 0 0 0 0 0 0 0 0
0 0 0 0 0 0 0 0 0 0 0 0 0 0 0 0 0 0 0 0 0 0 0 0 0 0 0 0 0 0 0 0 0 0 0 0 0 0 0 0 0 0 0 0
0 0 0 0 0 0 0 0 0 0 0 0 0 0 0 0 0 0 0 0 0 0 0 0 0 0 0 0 0 0 0 0 0 0 0 0 0 0 0 0 0 0 0 0
0 0 0 0 0 0 0 0 0 0 0 0 0 0 0 0 0 0 0 0 0 0 0 0 0 0 0 0 0 0 0 0 0 0 0 0 0 0 0 0 0 0 0 0
0 0 0 0 0 0 0 0 0 0 0 0 0 0 0 0 0 0 0 0 0 0 0 0 0 0 0 0 0 0 0 0 0 0 0 0 0 0 0 0 0 0 0 0
0 0 0 0 0 0 0 0 0 0 0 0 0 0 0 0 0 0 0 0 0 0 0 0 0 0 0 0 0 0 0 0 0 0 0 0 0 0 0 0 0 0 0 0
0 0 0 0 0 0 0 0 0 0 0 0 0 0 0 0 0 0 0 0 0 0 0 0 0 0 0 0 0 0 0 0 0 0 0 0 0 0 0 0 0 0 0 0
0 0 0 0 0 0 0 0 0 0 0 0 0 0 0 0 0 0 0 0 0 0 0 0 0 0 0 0 0 0 0 0 0 0 0 0 0 0 0 0 0 0 0 0
0 0 0 0 0 0 0 0 0 0 0 0 0 0 0 0 0 0 0 0 0 0 0 0 0 0 0 0 0 0 0 0 0 0 0 0 0 0 0 0 0 0 0 0
0 0 0 0 0 0 0 0 0 0 0 0 0 0 0 0 0 0 0 0 0 0 0 0 0 0 0 0 0 0 0 0 0 0 0 0 0 0 0 0 0 0 0 0
0 0 0 0 0 0 0 0 0 0 0 0 0 0 0 0 0 0 0 0 0 0 0 0 0 0 0 0 0 0 0 0 0 0 0 0 0 0 0 0 0 0 0 0
0 0 0 0 0 0 0 0 0 0 0 0 0 0 0 0 0 0 0 0 0 0 0 0 0 0 0 0 0 0 0 0 0 0 0 0 0 0 0 0 0 0 0 0
0 0 0 0 0 0 0 0 0 0 0 0 0 0 0 0 0 0 0 0 0 0 0 0 0 0 0 0 0 0 0 0 0 0 0 0 0 0 0 0 0 0 0 0
0 0 0 0 0 0 0 0 0 0 0 0 0 0 0 0 0 0 0 0 0 0 0 0 0 0 0 0 0 0 0 0 0 0 0 0 0 0 0 0 0 0 0 0
0 0 0 0 0 0 0 0 0 0 0 0 0 0 0 0 0 0 0 0 0 0 0 0 0 0 0 0 0 0 0 0 0 0 0 0 0 0 0 0 0 0 0 0
0 0 0 0 0 0 0 0 0 0 0 0 0 0 0 0 0 0 0 0 0 0 0 0 0 0 0 0 0 0 0 0 0 0 0 0 0 0 0 0 0 0 0 0
0 0 0 0 0 0 0 0 0 0 0 0 0 0 0 0 0 0 0 0 0 0 0 0 0 0 0 0 0 0 0 0 0 0 0 0 0 0 0 0 0 0 0 0
0 0 0 0 0 0 0 0 0 0 0 0 0 0 0 0 0 0 0 0 0 0 0 0 0 0 0 0 0 0 0 0 0 0 0 0 0 0 0 0 0 0 0 0
0 0 0 0 0 0 0 0 0 0 0 0 0 0 0 0 0 0 0 0 0 0 0 0 0 0 0 0 0 0 0 0 0 0 0 0 0 0 0 0 0 0 0 0
Wind_Speed
3 2 2 2 3 3 6 7 8 8 8 9 7 6 6 5 5 6 6 6 6 6 6 6 6 5 5 5 4 3 3 3 4 4 4 4 4 5 5 5 6 6 6 6
3 2 2 4 6 5 6 6 8 9 10 6 6 4 5 6 6 7 7 7 6 6 6 6 6 6 6 6 5 3 4 4 4 3 3 4 4 4 5 5 5 5 6 6
3 2 3 6 5 5 4 4 5 8 8 6 6 7 6 7 7 7 7 7 7 6 6 7 6 6 6 6 5 4 4 4 4 4 4 4 4 4 5 5 5 5 6 6
1 2 5 6 1 2 4 4 4 5 6 6 8 8 7 6 5 6 7 7 7 6 6 6 6 6 5 5 5 4 5 5 4 4 4 4 4 4 5 4 5 5 6 6
1 2 7 5 1 1 3 6 3 5 7 8 8 6 5 3 3 5 6 6 6 6 6 6 6 6 5 5 5 5 5 5 5 4 5 5 5 5 5 4 5 5 6 6
2 2 7 5 2 2 1 6 2 3 6 7 6 5 6 5 6 7 7 6 5 6 6 6 6 5 5 5 5 6 6 5 5 5 5 5 6 5 5 5 5 5 6 5
3 4 8 4 2 2 2 6 6 4 5 4 4 6 8 8 7 7 7 6 6 5 5 6 6 5 6 6 7 7 6 6 5 5 5 5 5 5 4 5 4 5 5 5
2 4 8 1 2 3 5 5 5 5 5 5 6 7 7 7 7 7 7 7 6 6 6 6 5 5 6 7 8 7 6 6 5 5 5 4 4 4 4 4 4 5 4 5
7 7 3 1 3 3 2 4 5 5 6 5 6 7 8 7 7 7 7 7 6 6 7 6 5 5 7 8 7 6 6 6 6 5 4 4 4 5 4 4 4 4 4 4
4 6 4 4 4 4 4 5 6 5 5 5 6 7 8 7 7 7 7 7 7 7 7 7 7 6 6 7 6 6 6 6 5 4 4 4 4 4 4 4 4 4 5 4
5 6 6 4 4 5 6 5 6 6 6 6 5 7 7 7 7 6 7 7 7 7 8 9 8 8 8 7 6 6 6 5 5 4 4 4 4 4 5 5 5 6 5 4
6 4 4 7 6 5 5 6 6 6 7 6 5 6 7 7 6 6 7 7 7 8 8 9 8 9 8 7 6 5 5 5 4 4 4 4 4 4 6 6 8 10 9 8
5 4 5 7 6 4 4 6 6 6 6 6 6 5 6 6 6 6 7 7 8 8 8 9 9 9 9 7 6 5 6 5 4 4 4 4 4 4 4 5 7 9 9 10
3 3 5 5 6 6 5 5 5 5 5 5 5 5 5 6 6 6 7 7 8 8 8 8 8 9 9 7 6 6 6 6 5 4 4 4 4 4 4 4 4 4 6 9
3 3 5 6 5 5 5 5 5 6 6 6 5 5 6 6 7 7 7 7 7 7 8 8 8 9 8 7 6 6 5 4 4 4 4 4 3 3 3 4 4 4 4 5
6 5 4 4 6 6 6 6 6 6 6 6 6 7 7 7 7 7 7 6 7 8 8 8 9 9 8 7 6 5 4 7 7 4 4 3 3 3 3 3 3 3 3 3
4 5 5 6 7 7 6 6 5 6 6 6 7 7 7 7 7 7 7 7 7 7 8 8 9 9 8 7 6 4 4 5 8 5 4 4 3 3 3 3 3 3 3 4
4 6 6 6 6 6 6 5 5 5 5 6 6 6 6 6 7 8 8 8 8 8 8 8 8 9 8 7 6 5 4 4 4 4 4 4 4 3 2 3 3 3 3 4
5 5 5 5 4 4 4 5 5 5 5 5 5 6 6 6 7 7 7 7 8 9 9 9 13 10 8 8 9 4 4 4 4 4 4 6 5 3 3 3 3 3 3 3
5 5 5 5 4 4 4 4 4 5 5 5 5 6 7 7 7 7 7 6 6 6 8 10 9 8 8 8 9 4 4 4 4 4 4 3 4 4 3 3 3 3 3 3
5 5 5 5 5 5 4 4 4 5 5 5 5 6 7 7 7 6 6 7 7 7 8 11 7 6 7 7 9 4 4 4 4 4 4 4 4 4 4 4 3 3 3 3
5 4 5 5 5 5 5 4 4 4 5 5 5 6 6 7 7 6 5 5 7 11 8 6 6 9 10 9 4 4 4 4 4 3 3 3 4 4 4 4 3 3 3 3
4 4 4 4 4 5 5 4 4 4 5 5 6 6 6 6 5 5 7 6 6 11 8 6 10 14 14 7 4 4 4 5 4 4 3 3 4 4 4 4 4 3 3 3
4 4 4 4 4 4 5 5 5 4 4 5 5 5 5 5 5 4 4 10 13 13 7 10 15 15 13 5 4 4 5 5 5 4 4 4 4 4 4 4 4 4 3 4
4 3 3 4 4 4 5 5 5 5 5 5 5 5 4 3 4 5 5 7 11 12 7 10 15 14 8 5 5 5 5 5 5 5 4 4 4 4 4 4 4 4 4 4
3 3 3 3 3 3 3 4 4 4 5 5 5 5 4 4 5 5 5 6 8 10 8 6 7 8 6 5 5 5 5 6 6 5 5 5 5 5 4 5 5 4 4 4
3 3 3 3 3 3 3 3 4 5 4 5 6 5 5 5 5 5 6 6 6 6 6 6 5 5 5 5 5 5 5 5 5 5 5 5 4 4 5 6 5 4 4 4
Wind_Direction
254 255 191 239 261 223 214 220 228 248 250 274 289 291 300 311 317 321 319 321 322 322 322 323 324 323 317 308 306 298 279 268 261 261 255 249 246 242 238 234 232 228 227 227
283 247 244 276 276 245 244 253 257 271 275 283 298 310 308 304 305 307 306 308 312 315 316 314 313 314 313 307 305 298 276 270 275 274 266 257 252 248 243 239 235 230 229 228
266 294 343 280 248 216 232 231 220 247 270 315 315 308 299 297 298 295 299 304 306 305 302 304 304 305 302 299 301 293 282 279 275 269 266 263 262 258 249 243 238 237 234 229
277 28 250 244 153 198 235 256 236 269 298 305 296 297 292 290 289 296 303 304 303 302 302 304 301 301 297 296 295 289 282 277 273 266 266 267 262 258 255 247 241 241 240 234
161 242 273 288 284 186 239 273 241 265 294 309 317 309 297 311 310 298 299 299 297 298 299 304 305 303 305 302 297 288 279 275 272 265 266 265 261 258 258 252 247 245 242 236
156 219 249 260 294 302 154 277 304 298 296 311 336 317 298 324 325 315 312 308 307 308 307 308 309 311 305 302 300 291 284 280 276 267 260 258 258 260 261 253 253 248 248 242
203 234 261 266 312 64 167 273 316 300 292 294 276 268 291 312 317 315 314 316 317 315 311 308 311 315 306 303 296 291 291 286 277 267 261 258 259 258 255 255 255 248 250 251
186 226 258 304 102 180 242 300 311 304 296 290 289 297 305 312 316 321 323 323 324 319 313 312 313 312 306 301 299 298 295 288 280 271 266 265 259 261 256 249 252 251 249 253
203 225 259 182 216 248 285 296 300 299 300 297 298 301 308 312 316 320 323 323 321 316 313 315 314 308 300 300 304 304 299 292 284 279 273 270 261 260 258 247 247 253 248 249
261 269 278 271 270 298 305 295 298 299 300 302 299 302 309 312 316 320 321 321 320 319 316 315 317 313 300 301 305 304 300 298 293 283 280 274 265 258 251 247 247 249 248 249
260 282 314 291 288 301 308 311 314 315 310 305 303 306 309 311 312 314 318 318 317 315 311 311 314 313 310 308 306 301 300 299 297 286 277 274 268 258 253 244 242 249 250 246
248 263 264 284 296 299 302 305 304 309 314 316 308 304 310 310 308 311 315 316 318 317 314 313 314 313 313 310 305 300 301 302 296 290 282 277 276 282 275 269 267 264 264 261
257 286 277 284 300 313 306 307 311 309 303 308 314 313 312 310 312 316 318 319 317 316 315 314 315 315 315 313 309 298 291 292 290 289 286 283 277 276 284 287 275 271 270 267
279 303 293 293 302 315 317 318 321 318 313 312 315 318 317 315 315 318 316 314 313 314 314 314 315 315 315 314 310 302 296 294 293 283 281 279 278 279 277 279 287 286 278 271
302 290 277 294 307 316 321 326 328 325 325 328 327 322 321 318 315 313 311 313 317 316 317 320 319 317 320 318 313 307 302 296 292 286 281 279 279 278 276 272 275 286 298 287
312 310 301 303 306 312 320 323 319 317 323 324 323 321 317 312 309 310 316 322 323 321 321 321 317 317 322 322 321 313 303 306 310 303 296 292 284 275 271 270 272 276 279 289
314 312 313 311 306 305 305 307 306 309 314 315 315 317 317 317 317 321 323 321 316 312 312 313 314 319 323 324 320 313 309 310 317 319 310 300 290 276 271 273 275 279 278 276
274 279 281 284 290 298 307 311 311 311 310 309 316 321 322 322 320 318 319 321 322 320 317 317 318 320 322 324 321 316 313 311 312 310 310 311 309 301 292 283 283 287 295 296
313 309 309 306 302 301 301 304 309 312 313 315 318 317 315 314 314 315 318 322 324 323 324 325 327 330 325 324 326 320 320 320 321 320 317 317 322 318 306 297 295 294 295 300
330 329 327 324 324 319 311 313 316 316 315 318 318 319 319 318 319 318 321 317 311 307 312 321 325 324 322 321 325 324 323 317 314 316 318 316 316 315 308 301 298 300 301 299
327 329 330 329 326 324 319 318 317 314 316 319 317 314 313 316 321 322 322 319 318 319 319 324 329 324 321 324 325 328 323 316 314 313 316 315 313 313 310 305 304 304 303 303
320 320 321 323 325 323 324 320 314 313 318 322 322 322 322 322 325 323 314 304 313 323 329 326 325 327 331 333 335 333 324 318 313 313 313 310 308 309 310 307 304 304 302 300
313 314 316 318 319 318 322 323 320 319 320 320 321 322 321 317 319 320 319 320 319 324 330 328 330 333 337 341 338 333 329 327 321 315 309 306 304 303 304 305 305 304 304 303
317 319 319 324 330 329 327 326 326 322 315 310 313 315 316 317 317 309 303 318 327 330 333 330 335 337 342 347 340 335 330 326 322 317 310 306 304 302 302 304 303 303 301 299
320 319 324 330 327 317 316 322 327 326 324 322 322 322 317 310 308 314 318 318 324 332 332 332 336 340 344 338 335 330 325 322 319 316 313 309 306 305 303 302 302 303 301 297
315 312 308 303 302 307 314 319 320 322 325 324 323 325 325 321 314 314 317 321 323 328 331 328 329 332 333 332 331 328 326 324 327 329 322 314 311 309 306 307 307 302 298 297
320 321 321 320 321 319 316 314 314 315 317 314 314 320 324 324 323 323 322 323 324 324 323 324 326 328 329 329 327 326 324 321 320 320 318 315 312 310 309 307 305 302 301 304